Weather History for PAKT - December, 2012

Change the Weather History Date:

Friday, December 21, 2012

  Actual Average Record
Temperature  
Mean Temperature 30 °F -  
Max Temperature 34 °F 39 °F 53 °F (1958)
Min Temperature 25 °F 28 °F 10 °F (1964)
Degree Days  
Heating Degree Days 36    
Moisture  
Dew Point 20 °F    
Average Humidity 65    
Maximum Humidity 82    
Minimum Humidity 46    
Precipitation  
Precipitation 0.00 in - - ()
Sea Level Pressure  
Sea Level Pressure 29.75 in    
Wind  
Wind Speed 3 mph (West)    
Max Wind Speed 9 mph    
Max Gust Speed 18 mph    
Visibility 10 miles    
Events      
Averages and records for this station are not official NWS values.
T = Trace of Precipitation, MM = Missing Value Source: NWS Daily Summary

Daily Weather History Graph

Daily Weather History Graph

Search for Another Location

Airport or City:

Trip Planner

Search our weather history database for the weather conditions in past years. The results will help you decide how hot, cold, wet, or windy it might be!

Date:

Astronomy

Dec. 21, 2012 Rise Set
Actual Time 8:12 AM AKST 3:18 PM AKST
Civil Twilight 7:26 AM AKST 4:04 PM AKST
Nautical Twilight 6:38 AM AKST 4:52 PM AKST
Astronomical Twilight 5:53 AM AKST 5:37 PM AKST
Moon 11:49 AM AKST (12/21) 1:21 AM AKST (12/21)
Length of Visible Light 8h 38m
Length of Day
7h 05m
Waxing Gibbous, 66% of the Moon is Illuminated
Dec 21
Waxing Gibbous
Dec 28
Full
Jan 4
Last Quarter
Jan 11
New
Jan 18
First Quarter

Hourly Weather History & Observations

Time (AKST) Temp. Windchill Dew Point Humidity Pressure Visibility Wind Dir Wind Speed Gust Speed Precip Events Conditions
12:53 AM 32.0 °F - 23.0 °F 69% 29.74 in 10.0 mi Calm Calm - N/A   Overcast
1:53 AM 30.9 °F - 26.1 °F 82% 29.76 in 10.0 mi Calm Calm - 0.00 in   Overcast
3:53 AM 33.1 °F 30.0 °F 23.0 °F 66% 29.76 in 10.0 mi West 3.5 mph - N/A   Mostly Cloudy
4:53 AM 33.1 °F 28.7 °F 21.9 °F 64% 29.77 in 10.0 mi NW 4.6 mph - N/A   Overcast
5:53 AM 33.1 °F 27.7 °F 21.9 °F 64% 29.77 in 10.0 mi WNW 5.8 mph - N/A   Overcast
6:05 AM 33.8 °F 30.8 °F 21.2 °F 60% 29.76 in 10.0 mi Variable 3.5 mph - N/A   Mostly Cloudy
6:53 AM 32.0 °F - 21.0 °F 64% 29.78 in 10.0 mi Calm Calm - N/A   Mostly Cloudy
7:53 AM 28.9 °F - 21.0 °F 72% 29.77 in 10.0 mi Calm Calm - N/A   Scattered Clouds
8:53 AM 28.9 °F - 21.0 °F 72% 29.78 in 10.0 mi Calm Calm - N/A   Clear
9:53 AM 32.0 °F 24.8 °F 19.0 °F 59% 29.77 in 10.0 mi WSW 8.1 mph - N/A   Clear
10:53 AM 33.1 °F 25.5 °F 18.0 °F 54% 29.78 in 10.0 mi West 9.2 mph - N/A   Clear
11:53 AM 33.1 °F 27.7 °F 18.0 °F 54% 29.76 in 10.0 mi Variable 5.8 mph - N/A   Clear
12:53 PM 34.0 °F 28.0 °F 15.1 °F 46% 29.75 in 10.0 mi NW 6.9 mph 18.4 mph N/A   Clear
1:53 PM 32.0 °F 24.8 °F 18.0 °F 56% 29.74 in 10.0 mi WNW 8.1 mph - N/A   Clear
2:53 PM 30.0 °F 22.4 °F 18.0 °F 61% 29.74 in 10.0 mi SSW 8.1 mph - N/A   Clear
3:53 PM 26.1 °F - 19.0 °F 75% 29.74 in 10.0 mi Calm Calm - N/A   Clear
4:53 PM 26.1 °F - 17.1 °F 69% 29.74 in 10.0 mi Calm Calm - N/A   Clear
5:53 PM 25.0 °F - 17.1 °F 72% 29.73 in 10.0 mi Calm Calm - N/A   Clear
6:53 PM 26.1 °F 20.5 °F 18.0 °F 71% 29.74 in 10.0 mi West 4.6 mph - N/A   Clear
7:53 PM 28.0 °F - 18.0 °F 66% 29.73 in 10.0 mi Calm Calm - N/A   Overcast
8:53 PM 30.0 °F 26.5 °F 18.0 °F 61% 29.73 in 10.0 mi West 3.5 mph - N/A   Overcast
9:53 PM 30.0 °F 26.5 °F 19.9 °F 66% 29.73 in 10.0 mi SW 3.5 mph - N/A   Overcast
10:53 PM 28.0 °F - 19.9 °F 72% 29.73 in 10.0 mi Calm Calm - N/A   Scattered Clouds
11:53 PM 28.0 °F - 21.0 °F 75% 29.72 in 10.0 mi Calm Calm - N/A   Overcast